OpenBCM V2.0.2 (Linux)

Packet Radio Mailbox

IZ3LSV

[San Dona' di P. JN]

 Login: GUEST





  
LU9DCE > KEPS     26.02.17 17:42l 184 Lines 9050 Bytes #999 (0) @ WW
BID : 2651_LU9DCE
Read: GUEST
Subj: SAT TLE OF feb 2017
Path: IZ3LSV<IW8PGT<CX2SA<LU4ECL<LU9DCE
Sent: 170226/1501Z @:LU9DCE.TOR.BA.ARG.SOAM #:2651 [TORTUGUITAS] FBB7.0.8-beta2
From: LU9DCE@LU9DCE.TOR.BA.ARG.SOAM
To  : KEPS@ALL

OSCAR 3
1 01293U 65016F   17056.84305669 -.00000062  00000-0 -51230-5 0  9999
2 01293  70.0734 210.3042 0016739   8.6406 351.4990 14.06145198654690
OSCAR 5
1 04321U 70008B   17056.47649865 -.00000038  00000-0  42178-4 0  9991
2 04321 101.7620 124.7817 0027764  26.3791  90.7336 12.52169271152500
OSCAR 6
1  6236U 72082B   17055.84933722 -.00000036 +00000-0 +55684-4 0  9994
2  6236 101.6949 022.6913 0004079 172.5898 242.2521 12.53135318029159
OSCAR 7
1 07530U 74089B   17056.90427181 -.00000046  00000-0 -11405-4 0  9991
2 07530 101.6160  27.8468 0011975 176.5954 209.5912 12.53625653934919
OSCAR 8
1 10703U 78026B   17056.87721125 -.00000263  00000-0 -15209-3 0  9999
2 10703  98.8721  22.8704 0006063 280.6182 132.3717 13.99217685989026
OSCAR 10
1 14129U 83058B   17056.97839767  .00000063  00000-0  00000+0 0  9994
2 14129  26.9064  52.1765 6022441 275.7241 240.4028  2.05869828225534
OSCAR 11 (UoSAT 2)
1 14781U 84021B   17057.16693541  .00000154  00000-0  25272-4 0  9993
2 14781  97.7136 106.8802 0008121 193.9468 166.1523 14.82861190773891
OSCAR 16 (PACSAT)
1 20439U 90005D   17056.85203556  .00000022  00000-0  24100-4 0  9990
2 20439  98.6000 356.9643 0011684 127.1961 301.4247 14.32668482415461
OSCAR 17 (DOVE)
1 20440U 90005E   17056.47112605  .00000038  00000-0  29894-4 0  9996
2 20440  98.5804 355.7992 0011869 114.6346   3.1528 14.33063031415649
OSCAR 18 (WEBERSAT)
1 20441U 90005F   17056.39994475  .00000027  00000-0  25870-4 0  9999
2 20441  98.5832 355.0147 0012391 123.4313 348.3716 14.32716544415487
OSCAR 19 (LUSAT)
1 20442U 90005G   17057.39269563  .00000017  00000-0  22258-4 0  9990
2 20442  98.5676 355.0843 0012822 112.7603 247.4937 14.32849674415754
JAS 1B (FUJI 2)
1 20480U 90013C   17056.22382429 -.00000009  00000-0  61132-4 0  9995
2 20480  99.0327 210.4460 0539367 284.6643  69.5277 12.83414688267353
COSMOS 2123
1 21089U 91007A   17056.41207094  .00000041  00000-0  26643-4 0  9993
2 21089  82.9267 340.7567 0030480  60.4572  77.4484 13.74644387307255
OSCAR 22 (UoSAT 5)
1 21575U 91050B   17056.89772415  .00000036  00000-0  25912-4 0  9999
2 21575  98.7623  70.6194 0006212 271.7488  88.2988 14.40784900345251
OSCAR 23 (KITSAT 1)
1 22077U 92052B   17056.50541458 -.00000091  00000-0 -11549-3 0  9992
2 22077  66.0837 200.4887 0002846 354.6974  66.6368 12.86517230153028
KITSAT B
1 22825U 93061C   17056.45039690  .00000008  00000-0  20695-4 0  9997
2 22825  98.7978  20.7465 0007492 302.4538  57.5918 14.29986823221439
POSAT 1
1 22826U 93061D   17057.13665696  .00000001  00000-0  18039-4 0  9997
2 22826  98.7922  21.5350 0007910 289.3123  70.7203 14.30314565221703
ITAMSAT
1 22828U 93061F   17056.87930978  .00000002  00000-0  18267-4 0  9991
2 22828  98.7828  20.0964 0008814 254.7610 105.2598 14.30623782190021
EYESAT A
1 22829U 93061G   17055.91689765 -.00000001 +00000-0 +17091-4 0  9995
2 22829 098.7862 021.7900 0008712 247.5889 179.4687 14.30958859221802
RADIO ROSTO
1 23439U 94085A   17056.87127522 -.00000052  00000-0 -26489-3 0  9991
2 23439  64.8175  39.2114 0168108 264.8763 111.0804 11.27566182913023
JAS 2
1 24278U 96046B   17056.50630730 -.00000032  00000-0  62744-5 0  9995
2 24278  98.5795 314.5365 0349316 266.7133  89.3995 13.53074801 13772
TMSAT
1 25396U 98043C   17057.17587727  .00000009  00000-0  22628-4 0  9996
2 25396  98.5730   3.7723 0001673 307.6444  52.4583 14.24429342968360
TECHSAT 1B
1 25397U 98043D   17056.44438452 -.00000016  00000-0  11870-4 0  9992
2 25397  98.5990   1.2046 0001189  20.8402 339.2825 14.23615591967894
SEDSAT 1
1 25509U 98061B   17056.16780967  .00000282  00000-0  44297-4 0  9990
2 25509  31.4326 340.8929 0346802 101.7275 262.2466 14.30262908958097
PAN SAT
1 25520U 98064B   17057.21715681  .00001088  00000-0  30620-4 0  9994
2 25520  28.4589  20.0949 0005065 211.6042 148.4249 15.28209672 17291
ISS (ZARYA)
1 25544U 98067A   17057.57677507  .00002876  00000-0  50105-4 0  9992
2 25544  51.6411 229.6868 0006306 237.3901 206.3646 15.54464121 44559
OSCAR 36 (UOSAT 12)
1 25693U 99021A   17057.15581803 -.00000046  00000-0  12846-4 0  9993
2 25693  64.5554 107.8788 0024359 322.9850  36.9573 14.80716156963726
OPAL
1 26063U 00004C   17056.16253668  .00000003  00000-0  21034-4 0  9994
2 26063 100.2220  38.9207 0035782 264.2593  95.4507 14.36653564895297
SAUDISAT 1A
1 26545U 00057A   17056.51505178  .00000158  00000-0  36162-4 0  9991
2 26545  64.5539  73.4144 0050158 241.9547 117.6483 14.84707527887761
TIUNGSAT 1
1 26548U 00057D   17057.20521573  .00000168  00000-0  34282-4 0  9990
2 26548  64.5527 347.1886 0042684 240.1382 119.5483 14.88942871889577
SAUDISAT 1B
1 26549U 00057E   17057.14523630  .00000077  00000-0  27627-4 0  9994
2 26549  64.5528 105.0269 0054931 243.7678 115.7776 14.83321727887173
AMSAT OSCAR 40
1 26609U 00072B   17054.82263035 -.00000371  00000-0  00000+0 0  9999
2 26609   6.3416 245.6771 7957309  84.1779 351.4422  1.25588397 74913
PCSAT
1 26931U 01043C   17056.86719120 -.00000019  00000-0  24443-4 0  9994
2 26931  67.0524  18.4129 0007300 280.2803  79.7475 14.30448149804420
SAPPHIRE
1 26932U 01043D   17056.19068860 -.00000025  00000-0  22116-4 0  9991
2 26932  67.0572  22.3361 0006793 294.0345  66.0045 14.30240247804358
RUBIN 2
1 27605U 02058A   17056.54955114  .00000010  00000-0  22164-4 0  9998
2 27605  64.5550  88.7352 0038301 148.0188 212.3250 14.74881288763018
SAUDISAT 1C
1 27607U 02058C   17057.17315528  .00000066  00000-0  30093-4 0  9990
2 27607  64.5549 104.7924 0037331 147.9649 212.3733 14.75287184762734
MOZHAYETS 4
1 27939U 03042A   17057.23423762  .00000176  00000-0  40119-4 0  9991
2 27939  97.9203 205.6677 0012308 213.3081 194.9402 14.66525466717051
AMSAT ECHO
1 28375U 04025K   17056.49728094  .00000022  00000-0  20007-4 0  9995
2 28375  98.3515 352.3231 0081340 260.2565  98.9432 14.41825699665729
HAMSAT
1 28650U 05017B   17056.50655955  .00000470  00000-0  56017-4 0  9997
2 28650  97.6386  34.7192 0024579 137.6577 222.6544 14.88569949639557
SSETI-EXPRESS
1 28894U 05043E   17056.51418714  .00000103  00000-0  29648-4 0  9990
2 28894  97.8645 218.9004 0017905 146.8630 213.3697 14.61420704604028
MOZ.5/SAFIR/RUBIN 5/SL-8
1 28898U 05043G   17056.49070787  .00000030  00000-0  15443-4 0  9992
2 28898  97.9080 211.2072 0019983 175.3406 184.7985 14.60164938603532
PEHUENSAT 1
1 29712U 07001D   17056.49680224  .00005181  00000-0  30731-3 0  9995
2 29712  97.5616  81.8075 0005715 305.5625  54.5072 15.11781744550462
DELFI C3
1 32789U 08021G   17056.10243887  .00003291  00000-0  23932-3 0  9999
2 32789  97.5746 116.6458 0014368 121.0859 239.1779 15.04434865480019
YUBELEINY
1 32953U 08025A   17057.13376000  .00000034  00000-0  17268-3 0  9991
2 32953  82.5044 308.7255 0018755 165.4096 194.7529 12.43074764397626
PRISM (HITOMI)
1 33493U 09002B   17057.16870800  .00000746  00000-0  73044-4 0  9992
2 33493  98.1850 294.8241 0016963  87.8453 272.4689 14.95476737439181
STARS (KUKAI)
1 33498U 09002G   17057.08843241  .00000383  00000-0  60077-4 0  9996
2 33498  98.3121 227.3833 0010729 352.6419 143.0110 14.78488438435489
KKS-1 (KISEKI)
1 33499U 09002H   17056.83649881  .00000231  00000-0  42287-4 0  9998
2 33499  98.3172 219.0435 0009421  16.7661 343.3856 14.75139005434948
SUMBANDILA
1 35870U 09049F   17057.09040045  .00007407  00000-0  12423-3 0  9990
2 35870  97.1089  74.8809 0004278 100.8273 343.5504 15.52098650415989
XIWANG-1 (HOPE-1)
1 36122U 09072B   17057.22039596 -.00000048  00000-0 -14157-4 0  9994
2 36122 100.1135  88.4273 0008075 128.6395 231.5443 13.16338385346032
JUGNU
1 37839U 11058B   17057.09695701  .00000326  00000-0  31921-4 0  9993
2 37839  19.9623  44.0636 0019074  39.5429  13.7941 14.12572486277975
SRMSAT
1 37841U 11058D   17055.46121413  .00000300  00000-0  19982-4 0  9994
2 37841  19.9721  93.3435 0011637 283.3483 213.1874 14.10565386277348
RAX-2
1 37853U 11061D   17057.16077597  .00001585  00000-0  97516-4 0  9998
2 37853 101.7151 227.8859 0176871  56.0512 305.7370 15.01007484289985
AUBIESAT-1
1 37854U 11061E   17056.14594646  .00002528  00000-0  14302-3 0  9994
2 37854 101.7088 232.7475 0168950  46.4916 315.0195 15.03651389290098
M-CUBED/EXP-1 PRIME
1 37855U 11061F   17057.21021686  .00001912  00000-0  10824-3 0  9994
2 37855 101.7213 232.2314 0182203  49.1828 312.5023 15.02608111290125
CHIBIS-M
1 38051U 11062C   14288.65876392  .70201582  12497-4  27925-2 0  9995
2 38051 051.5964 324.1908 0006422 269.6897 186.8903 16.43533377153081
MASAT-1
1 38081U 12006E   15009.86954674  .36181825  49011-5  43735-3 0  9992
2 38081 069.4150 141.5751 0006093 101.2598 259.4750 16.49686879155248

======================================================================
How can you prove whether at this moment we are sleeping, and all
our thoughts are a dream; or whether we are awake, and talking to
one another in the waking state?
		-- Plato
======================================================================
        __  __  __ __
|  /  \(__\|  \/  |_    BBS GF05OM TORTUGUITAS
|__\__/ __/|__/\__|__   TELNET LU9DCE.DYNU.COM PORT 6300
== power by linux ===   TELNET LU9DCE.AMPR.ORG PORT 7300



Read previous mail | Read next mail


 02.05.2026 09:36:06lGo back Go up